TimeMDT,TemperatureF,Dew PointF,Humidity,Sea Level PressureIn,VisibilityMPH,Wind Direction,Wind SpeedMPH,Gust SpeedMPH,PrecipitationIn,Events,Conditions,WindDirDegrees,DateUTC
12:15 AM,63.1,12.7,14,30.00,10.0,WNW,6.9,-,N/A,,Clear,290,2013-05-01 06:15:00
12:35 AM,61.9,12.7,15,30.00,10.0,WNW,9.2,17.3,N/A,,Clear,290,2013-05-01 06:35:00
12:55 AM,61.0,12.6,15,30.00,10.0,WNW,10.4,-,N/A,,Clear,290,2013-05-01 06:55:00
1:15 AM,60.1,12.0,15,30.00,10.0,NW,6.9,-,N/A,,Clear,310,2013-05-01 07:15:00
1:35 AM,59.0,12.2,16,30.00,10.0,WNW,5.8,-,N/A,,Clear,290,2013-05-01 07:35:00
1:55 AM,57.0,12.4,17,30.00,10.0,Calm,Calm,-,N/A,,Clear,0,2013-05-01 07:55:00
2:15 AM,55.4,12.4,18,30.00,10.0,NW,3.5,-,N/A,,Clear,310,2013-05-01 08:15:00
2:35 AM,53.8,11.7,19,30.01,10.0,Calm,Calm,-,N/A,,Clear,0,2013-05-01 08:35:00
2:55 AM,52.7,12.2,20,30.01,10.0,Calm,Calm,-,N/A,,Clear,0,2013-05-01 08:55:00
3:15 AM,51.1,12.4,21,30.01,10.0,Calm,Calm,-,N/A,,Clear,0,2013-05-01 09:15:00
3:35 AM,53.4,12.9,20,30.02,10.0,Calm,Calm,-,N/A,,Clear,0,2013-05-01 09:35:00
3:55 AM,50.2,11.8,22,30.03,10.0,Calm,Calm,-,N/A,,Clear,0,2013-05-01 09:55:00
4:15 AM,48.6,12.6,24,30.03,10.0,SE,6.9,-,N/A,,Clear,140,2013-05-01 10:15:00
4:35 AM,49.3,13.3,24,30.04,10.0,NE,3.5,-,N/A,,Clear,40,2013-05-01 10:35:00
4:55 AM,48.4,12.4,24,30.04,10.0,Calm,Calm,-,N/A,,Clear,0,2013-05-01 10:55:00
5:15 AM,49.6,12.6,23,30.04,10.0,Calm,Calm,-,N/A,,Clear,0,2013-05-01 11:15:00
5:35 AM,55.9,11.5,17,30.04,10.0,SW,3.5,-,N/A,,Clear,230,2013-05-01 11:35:00
5:55 AM,58.8,9.7,14,30.04,10.0,West,8.1,-,N/A,,Clear,270,2013-05-01 11:55:00
6:15 AM,55.8,11.8,18,30.04,10.0,North,5.8,-,N/A,,Clear,350,2013-05-01 12:15:00
6:35 AM,55.6,11.1,17,30.05,10.0,Calm,Calm,-,N/A,,Clear,0,2013-05-01 12:35:00
6:55 AM,60.6,8.6,13,30.05,10.0,WSW,9.2,-,N/A,,Clear,240,2013-05-01 12:55:00
7:15 AM,60.3,9.9,14,30.05,10.0,West,15.0,20.7,N/A,,Clear,260,2013-05-01 13:15:00
7:35 AM,60.8,9.5,13,30.04,10.0,West,19.6,26.5,N/A,,Clear,260,2013-05-01 13:35:00
7:55 AM,62.4,9.3,12,30.05,10.0,West,23.0,35.7,N/A,,Clear,260,2013-05-01 13:55:00
8:15 AM,63.9,11.3,13,30.06,10.0,West,16.1,34.5,N/A,,Clear,280,2013-05-01 14:15:00
8:35 AM,63.7,15.1,15,30.07,10.0,West,21.9,33.4,N/A,,Clear,280,2013-05-01 14:35:00
8:55 AM,64.8,14.7,14,30.08,10.0,West,21.9,28.8,N/A,,Clear,280,2013-05-01 14:55:00
9:15 AM,65.7,12.6,13,30.09,10.0,WNW,19.6,35.7,N/A,,Clear,290,2013-05-01 15:15:00
9:35 AM,66.9,11.3,12,30.09,10.0,WNW,19.6,29.9,N/A,,Clear,290,2013-05-01 15:35:00
9:55 AM,68.0,12.0,11,30.09,10.0,WNW,19.6,29.9,N/A,,Clear,290,2013-05-01 15:55:00
10:15 AM,68.7,12.7,12,30.09,10.0,West,17.3,28.8,N/A,,Clear,280,2013-05-01 16:15:00
10:35 AM,68.9,13.5,12,30.10,10.0,West,24.2,34.5,N/A,,Clear,280,2013-05-01 16:35:00
10:55 AM,69.8,13.1,11,30.10,10.0,West,26.5,31.1,N/A,,Clear,270,2013-05-01 16:55:00
11:15 AM,70.7,13.5,11,30.10,10.0,West,21.9,33.4,N/A,,Clear,270,2013-05-01 17:15:00
11:35 AM,71.1,13.5,11,30.10,10.0,West,16.1,27.6,N/A,,Clear,280,2013-05-01 17:35:00
11:55 AM,72.5,13.8,11,30.11,10.0,West,15.0,23.0,N/A,,Clear,270,2013-05-01 17:55:00
12:15 PM,73.0,13.5,10,30.10,10.0,West,10.4,27.6,N/A,,Clear,280,2013-05-01 18:15:00
12:35 PM,73.6,13.6,10,30.09,10.0,WNW,9.2,24.2,N/A,,Clear,290,2013-05-01 18:35:00
12:55 PM,75.2,11.8,9,30.08,10.0,WSW,11.5,23.0,N/A,,Clear,250,2013-05-01 18:55:00
1:15 PM,74.8,12.7,9,30.08,10.0,West,20.7,28.8,N/A,,Clear,260,2013-05-01 19:15:00
1:35 PM,75.9,13.3,9,30.08,10.0,West,20.7,28.8,N/A,,Clear,280,2013-05-01 19:35:00
1:55 PM,74.8,14.0,10,30.08,10.0,West,15.0,24.2,N/A,,Clear,280,2013-05-01 19:55:00
2:15 PM,75.9,14.9,10,30.08,10.0,West,17.3,28.8,N/A,,Clear,280,2013-05-01 20:15:00
2:35 PM,76.8,14.9,10,30.08,10.0,West,15.0,26.5,N/A,,Clear,280,2013-05-01 20:35:00
2:55 PM,76.3,14.9,10,30.08,10.0,WNW,19.6,26.5,N/A,,Clear,290,2013-05-01 20:55:00
3:15 PM,77.2,16.3,10,30.08,10.0,WNW,15.0,26.5,N/A,,Clear,290,2013-05-01 21:15:00
3:35 PM,76.3,15.8,10,30.07,10.0,SW,21.9,34.5,N/A,,Scattered Clouds,230,2013-05-01 21:35:00
3:55 PM,77.0,15.8,10,30.07,10.0,West,18.4,25.3,N/A,,Scattered Clouds,280,2013-05-01 21:55:00
4:15 PM,77.2,15.6,10,30.06,10.0,NW,12.7,26.5,N/A,,Clear,320,2013-05-01 22:15:00
4:35 PM,77.5,16.0,10,30.06,10.0,NW,21.9,31.1,N/A,,Clear,320,2013-05-01 22:35:00
4:55 PM,76.6,16.5,10,30.07,10.0,West,20.7,27.6,N/A,,Scattered Clouds,260,2013-05-01 22:55:00
5:15 PM,75.7,18.0,11,30.07,10.0,WNW,18.4,24.2,N/A,,Scattered Clouds,290,2013-05-01 23:15:00
5:35 PM,75.4,19.6,12,30.08,10.0,WNW,15.0,26.5,N/A,,Clear,290,2013-05-01 23:35:00
5:55 PM,75.0,20.3,13,30.08,10.0,WNW,19.6,28.8,N/A,,Scattered Clouds,290,2013-05-01 23:55:00
6:15 PM,74.7,20.3,13,30.09,10.0,West,23.0,31.1,N/A,,Scattered Clouds,280,2013-05-02 00:15:00
6:35 PM,73.0,19.2,13,30.10,10.0,WNW,13.8,26.5,N/A,,Scattered Clouds,290,2013-05-02 00:35:00
6:55 PM,72.3,17.2,12,30.11,10.0,West,17.3,29.9,N/A,,Clear,280,2013-05-02 00:55:00
7:15 PM,71.1,16.2,12,30.11,10.0,WNW,18.4,26.5,N/A,,Clear,300,2013-05-02 01:15:00
7:35 PM,69.8,15.6,13,30.12,10.0,WNW,19.6,24.2,N/A,,Clear,300,2013-05-02 01:35:00
7:55 PM,64.8,8.2,11,30.15,7.0,NNW,13.8,-,N/A,,Clear,340,2013-05-02 01:55:00
8:15 PM,61.3,-1.3,8,30.18,5.0,North,20.7,27.6,N/A,,Haze,350,2013-05-02 02:15:00
8:35 PM,58.5,-5.6,7,30.20,5.0,North,19.6,28.8,N/A,,Haze,350,2013-05-02 02:35:00
8:55 PM,57.0,-6.5,7,30.21,5.0,NNW,23.0,28.8,N/A,,Haze,340,2013-05-02 02:55:00
9:35 PM,54.1,-6.3,8,30.24,7.0,NNW,20.7,28.8,N/A,,Overcast,340,2013-05-02 03:35:00
9:55 PM,51.8,-6.3,9,30.26,7.0,NNW,17.3,20.7,N/A,,Overcast,330,2013-05-02 03:55:00
10:15 PM,50.9,-6.2,9,30.26,10.0,NNW,13.8,-,N/A,,Mostly Cloudy,330,2013-05-02 04:15:00
10:35 PM,49.1,-6.5,10,30.27,10.0,NNW,11.5,-,N/A,,Scattered Clouds,330,2013-05-02 04:35:00
10:55 PM,48.4,-6.3,10,30.28,10.0,NNW,12.7,-,N/A,,Clear,330,2013-05-02 04:55:00
11:15 PM,47.1,-6.7,10,30.28,10.0,NNW,12.7,-,N/A,,Clear,330,2013-05-02 05:15:00
11:35 PM,46.0,-6.7,11,30.29,10.0,NNW,16.1,-,N/A,,Clear,330,2013-05-02 05:35:00
11:55 PM,45.5,-6.5,11,30.30,10.0,NW,12.7,-,N/A,,Clear,320,2013-05-02 05:55:00